[[{"header":{"parameterUnit":"m.s-1","parameterCategory":2,"la1":30.2991,"la2":30.254,"lo1":-89.0895,"lo2":-89.0444,"dy":0.0017,"dx":0.0017,"nx":28,"ny":28,"refTime":"2025-03-18T21:00:00:Z","depth":"0","parameterNumber":2,"parameterNumberName":"U-component_of_CURRENTS"},"data":[0,0,0,0,0,0,0,0,0,0,0,0,0,0,0,0,0,0,0,0,0,0,0,0,0,0,0,0,0,0,0,0,0,0,0,0,0,0,0,0,0,0,0,0,0,0,0,0,0,0,0,0,0,0,0,0,0,0,0.2276,0.2276,0,0.2265,0.2264,0.2264,0.2245,0.2245,0.2245,0.2245,0.2243,0.2243,0.2243,0,0,0,0,0,0,0,0,0,0,0,0,0,0.2301,0.2301,0.2276,0.2276,0.2277,0.2265,0.2264,0.2264,0.2245,0.2245,0.2245,0.2245,0.2243,0.2243,0.2243,0,0,0,0,0,0,0,0,0,0,0,0,0,0.2288,0.23,0.2276,0.2268,0.2267,0.2265,0.2264,0.2264,0.2246,0.2245,0.2245,0.2245,0.2243,0.2243,0.2243,0.2245,0,0,0.2243,0.2243,0,0,0,0,0,0,0,0,0.2288,0.2286,0.2269,0.2269,0.2268,0.2259,0.2272,0.2259,0.2246,0.2251,0.2245,0.2245,0.2251,0.225,0.2244,0.2245,0.2245,0.2243,0.2243,0.2243,0.2243,0,0,0,0,0,0,0,0.2289,0.2287,0.2269,0.2269,0.2268,0.2271,0.2269,0.2269,0.225,0.2251,0.225,0.2253,0.225,0.2244,0.2244,0.2245,0.2243,0.2243,0.2243,0.2243,0.2314,0.2316,0,0,0,0,0,0,0.2295,0.2288,0.2269,0.2269,0.2281,0.2271,0.2268,0.226,0.225,0.2249,0.2253,0.2252,0.2244,0.2244,0.2244,0.2281,0.2243,0.2243,0.2243,0.2313,0.2315,0.2317,0,0,0,0,0,0,0.2295,0.2293,0.227,0.2281,0.2278,0.2271,0.2261,0.2259,0.2257,0.2252,0.225,0.2253,0.2244,0.2244,0.2248,0.2279,0.2243,0.2243,0.231,0.2313,0.2316,0.2332,0,0,0,0,0,0,0.2296,0.2293,0.2293,0.2281,0.2278,0.2279,0.2262,0.2259,0.226,0.2259,0.2252,0.2251,0.2244,0.2248,0.2248,0.2278,0.2243,0.2308,0.2312,0.2315,0.2329,0.2335,0.234,0,0,0,0,0,0.2297,0.23,0.2293,0.2291,0.2277,0.228,0.2279,0.2272,0.226,0.2266,0.2256,0.2251,0.2272,0.2248,0.2248,0.228,0.2306,0.2311,0.2315,0.2327,0.2334,0.234,0,0,0,0,0,0,0.2322,0.2298,0.229,0.2289,0.2289,0.2278,0.2285,0.2275,0.227,0.2268,0.2256,0.2255,0.2274,0.2279,0.2253,0.2317,0.2297,0.2301,0.2306,0.2313,0.2319,0.2319,0.2243,0,0,0,0,0,0.2326,0.2316,0.2304,0.2307,0.2305,0.2294,0.2295,0.2289,0.2282,0.228,0.2273,0.2279,0.2292,0.2301,0.2308,0.2332,0.2334,0.2362,0.2367,0.2372,0.2376,0.2398,0.2405,0.2331,0.2331,0.2331,0,0,0.234,0.2325,0.2323,0.2311,0.2308,0.2313,0.2294,0.2299,0.2306,0.2281,0.2288,0.2288,0.2301,0.2327,0.2339,0.2334,0.2396,0.2377,0.238,0.2382,0.2403,0.241,0.2416,0.2334,0.2333,0.2333,0,0,0.2364,0.2348,0.2346,0.2345,0.234,0.2334,0.2337,0.2326,0.2324,0.233,0.2322,0.2338,0.2349,0.2368,0.2379,0.2424,0.2417,0.2439,0.247,0.2492,0.2498,0.2503,0.2515,0.2521,0.245,0.245,0.245,0,0.2387,0.2373,0.2353,0.2354,0.236,0.2345,0.2357,0.2355,0.2348,0.236,0.234,0.2371,0.2374,0.2419,0.2434,0.2436,0.244,0.2436,0.2497,0.2502,0.2506,0.2518,0.2524,0.2451,0.2451,0.2451,0.2451,0,0.2403,0.2398,0.2402,0.2392,0.24,0.2408,0.2404,0.2415,0.2408,0.2408,0.2437,0.2431,0.2461,0.2469,0.2458,0.2509,0.2498,0.249,0.2471,0.2514,0.2524,0.253,0.2453,0.2452,0.2452,0.2452,0,0,0.2445,0.2416,0.2421,0.242,0.2418,0.2428,0.2451,0.2473,0.2503,0.2489,0.2525,0.2536,0.2534,0.2548,0.2545,0.2557,0.2587,0.2537,0.2538,0.2534,0.2627,0.2674,0.2685,0.2582,0.2583,0.2584,0.262,0,0.2469,0.2467,0.2454,0.2476,0.2477,0.2482,0.2509,0.253,0.2547,0.2578,0.2576,0.2604,0.2566,0.2585,0.2591,0.2592,0.2604,0.2578,0.26,0.2601,0.2624,0.2694,0.2779,0.2824,0.2626,0.2627,0.2628,0,0.2489,0.2482,0.2494,0.2507,0.2513,0.2532,0.2588,0.261,0.2653,0.2669,0.2695,0.2691,0.2715,0.2669,0.2685,0.2668,0.2652,0.2638,0.2639,0.2681,0.266,0.2751,0.2842,0.2903,0.2637,0.2636,0.2635,0,0.2513,0.2517,0.2525,0.2528,0.2541,0.2567,0.2588,0.264,0.2678,0.2731,0.2769,0.2783,0.2803,0.2781,0.2757,0.2725,0.2765,0.2724,0.2748,0.275,0.2829,0.2837,0.2971,0.2734,0.2734,0.2734,0.2734,0,0.2532,0.2542,0.2535,0.254,0.2574,0.2585,0.2646,0.2679,0.2743,0.28,0.2812,0.2866,0.283,0.2846,0.2799,0.2811,0.2808,0.2772,0.2775,0.2839,0.2847,0.2907,0.2901,0.2736,0.2735,0.2735,0.2735,0,0.2547,0.2539,0.2549,0.2567,0.2576,0.2602,0.2663,0.271,0.2776,0.2855,0.2875,0.2939,0.2974,0.2942,0.2929,0.289,0.2865,0.2877,0.2952,0.2963,0.3036,0.3027,0.2897,0.2831,0.2915,0.2916,0.2918,0,0.2522,0.2536,0.2565,0.2566,0.257,0.2609,0.2637,0.2711,0.2769,0.2903,0.294,0.3017,0.3076,0.3094,0.3072,0.3042,0.2936,0.307,0.3028,0.3083,0.3073,0.2844,0.278,0.3133,0.3136,0.3139,0.3141,0,0.2493,0.2529,0.2544,0.2554,0.2573,0.2603,0.2654,0.2707,0.2808,0.2899,0.301,0.3077,0.3171,0.3214,0.321,0.319,0.3047,0.3119,0.317,0.3265,0.303,0.2956,0.305,0.3162,0.316,0.3159,0.3157,0.3156,0.2452,0.2486,0.2515,0.2525,0.2541,0.2563,0.2576,0.266,0.2751,0.2877,0.3005,0.3134,0.3338,0.3376,0.3322,0.3403,0.3186,0.3387,0.3371,0.3129,0.3073,0.3212,0.333,0.3329,0.3328,0.3327,0.3326,0,0.2395,0.2458,0.2468,0.2474,0.2466,0.2499,0.2554,0.2571,0.2645,0.286,0.2976,0.3274,0.3439,0.3548,0.3723,0.3701,0.3457,0.3653,0.3409,0.3329,0.3514,0.3543,0.3722,0.3722,0.3722,0.3722,0.3722,0.3722,0.2362,0.2397,0.2431,0.2383,0.2382,0.2361,0.2373,0.2425,0.2562,0.2759,0.2959,0.3129,0.353,0.3945,0.4086,0.3994,0.3742,0.3622,0.3481,0.376,0.3733,0.3708,0.3739,0.3956,0.3956,0.3221,0.3217,0.3214]},{"header":{"parameterUnit":"m.s-1","parameterCategory":2,"la1":30.2991,"la2":30.254,"lo1":-89.0895,"lo2":-89.0444,"dy":0.0017,"dx":0.0017,"nx":28,"ny":28,"refTime":"2025-03-18T21:00:00:Z","depth":"0","parameterNumber":3,"parameterNumberName":"V-component_of_CURRENTS"},"data":[0,0,0,0,0,0,0,0,0,0,0,0,0,0,0,0,0,0,0,0,0,0,0,0,0,0,0,0,0,0,0,0,0,0,0,0,0,0,0,0,0,0,0,0,0,0,0,0,0,0,0,0,0,0,0,0,0,0,-0.0201,-0.0201,0,-0.0191,-0.0191,-0.0191,-0.0201,-0.0202,-0.0202,-0.0202,-0.0241,-0.0242,-0.0243,0,0,0,0,0,0,0,0,0,0,0,0,0,-0.0273,-0.0271,-0.0201,-0.0201,-0.0201,-0.0191,-0.0191,-0.0191,-0.0201,-0.0202,-0.0202,-0.0202,-0.0241,-0.0242,-0.0243,0,0,0,0,0,0,0,0,0,0,0,0,0,-0.0251,-0.0271,-0.0201,-0.0204,-0.0204,-0.0191,-0.0191,-0.0191,-0.0201,-0.0202,-0.0202,-0.0203,-0.0241,-0.0242,-0.0243,-0.024,0,0,-0.0246,-0.0247,0,0,0,0,0,0,0,0,-0.0252,-0.0248,-0.0204,-0.0204,-0.0204,-0.0197,-0.0231,-0.021,-0.0201,-0.0203,-0.0202,-0.0203,-0.023,-0.0232,-0.023,-0.0241,-0.0243,-0.0246,-0.0247,-0.0247,-0.0248,0,0,0,0,0,0,0,-0.0253,-0.0249,-0.0198,-0.0204,-0.0204,-0.0221,-0.0218,-0.0227,-0.0215,-0.0203,-0.0203,-0.0201,-0.0231,-0.0228,-0.0231,-0.0244,-0.0246,-0.0247,-0.0248,-0.0248,-0.0286,-0.0286,0,0,0,0,0,0,-0.025,-0.025,-0.0198,-0.0198,-0.0229,-0.0219,-0.0216,-0.02,-0.0214,-0.0216,-0.0201,-0.0202,-0.0226,-0.0229,-0.0232,-0.0226,-0.0247,-0.0248,-0.0249,-0.0286,-0.0286,-0.0286,0,0,0,0,0,0,-0.0251,-0.0245,-0.0199,-0.0224,-0.0219,-0.0217,-0.0199,-0.0199,-0.0197,-0.0212,-0.0215,-0.0199,-0.0227,-0.0231,-0.0232,-0.0228,-0.0249,-0.025,-0.0285,-0.0286,-0.0286,-0.0216,0,0,0,0,0,0,-0.0253,-0.0245,-0.0236,-0.0223,-0.0218,-0.0186,-0.0198,-0.0199,-0.0195,-0.0196,-0.0211,-0.0215,-0.0227,-0.023,-0.0233,-0.023,-0.0251,-0.0285,-0.0285,-0.0286,-0.0217,-0.0214,-0.021,0,0,0,0,0,-0.0256,-0.0238,-0.0235,-0.0229,-0.0203,-0.0186,-0.0184,-0.0186,-0.0194,-0.0188,-0.0196,-0.0215,-0.0238,-0.023,-0.0234,-0.0231,-0.0284,-0.0285,-0.0286,-0.0219,-0.0214,-0.021,0,0,0,0,0,0,-0.0273,-0.0237,-0.0234,-0.0209,-0.0197,-0.0187,-0.0181,-0.0184,-0.0185,-0.0187,-0.0206,-0.0209,-0.0211,-0.0235,-0.0227,-0.0248,-0.027,-0.0271,-0.0218,-0.0214,-0.021,-0.0192,-0.0252,0,0,0,0,0,-0.027,-0.0243,-0.0221,-0.0204,-0.0193,-0.0187,-0.0183,-0.0181,-0.0178,-0.0179,-0.019,-0.0208,-0.0217,-0.0225,-0.0237,-0.0241,-0.0262,-0.025,-0.0246,-0.0242,-0.0233,-0.0246,-0.0241,-0.0289,-0.0289,-0.0289,0,0,-0.0277,-0.0251,-0.0241,-0.0206,-0.0196,-0.0173,-0.0186,-0.0171,-0.0159,-0.0184,-0.0175,-0.0189,-0.0215,-0.0215,-0.0221,-0.0234,-0.0245,-0.0244,-0.024,-0.0232,-0.0246,-0.0241,-0.0236,-0.0289,-0.0289,-0.0289,0,0,-0.0263,-0.0248,-0.0214,-0.0197,-0.0171,-0.0167,-0.0161,-0.0146,-0.0146,-0.0136,-0.0153,-0.016,-0.0179,-0.0189,-0.02,-0.0188,-0.022,-0.0206,-0.0173,-0.0184,-0.018,-0.0176,-0.0208,-0.0208,-0.0208,-0.0208,-0.0208,0,-0.0274,-0.022,-0.0207,-0.0169,-0.0156,-0.016,-0.0131,-0.0128,-0.0121,-0.0113,-0.0129,-0.0141,-0.0165,-0.0159,-0.0158,-0.0177,-0.0195,-0.018,-0.0176,-0.0173,-0.017,-0.0204,-0.0204,-0.0205,-0.0205,-0.0206,-0.0206,0,-0.0223,-0.0189,-0.017,-0.0121,-0.0111,-0.0086,-0.0078,-0.0074,-0.0079,-0.0071,-0.0064,-0.0088,-0.0098,-0.0112,-0.013,-0.0125,-0.0149,-0.0162,-0.0178,-0.0161,-0.0199,-0.02,-0.02,-0.0201,-0.0202,-0.0203,0,0,-0.0214,-0.0146,-0.0138,-0.0106,-0.008,-0.0062,-0.0051,-0.0027,0.0,-0.0015,0.0016,-0.0013,-0.0023,-0.0037,-0.0064,-0.0076,-0.0082,-0.0109,-0.0111,-0.0125,-0.012,-0.0155,-0.0161,-0.0088,-0.0088,-0.0087,-0.0158,0,-0.0175,-0.0092,-0.0079,-0.0026,0.0017,0.0005,0.002,0.0032,0.0044,0.007,0.0041,0.0057,0.0004,0.0006,-0.0016,-0.0054,-0.0081,-0.0063,-0.015,-0.0153,-0.0171,-0.0161,-0.0164,-0.0228,-0.016,-0.016,-0.016,0,-0.0115,-0.0066,0.0005,0.0046,0.0061,0.008,0.0114,0.0128,0.015,0.0156,0.0158,0.0144,0.012,0.0076,0.0003,0.002,-0.0049,-0.0089,-0.0093,-0.0147,-0.0189,-0.0235,-0.0233,-0.0421,-0.0163,-0.0163,-0.0163,0,-0.0078,-0.0011,0.0049,0.0067,0.0112,0.0127,0.0137,0.0164,0.0203,0.0218,0.0255,0.0215,0.0214,0.0127,0.0025,0.0018,-0.0052,-0.0077,-0.0179,-0.0184,-0.0214,-0.0221,-0.0387,-0.0134,-0.0134,-0.0133,-0.0133,0,-0.0025,0.0023,0.0076,0.0114,0.0176,0.0176,0.0243,0.0246,0.029,0.037,0.0306,0.036,0.0233,0.0179,0.0058,-0.0065,-0.004,-0.0169,-0.0197,-0.0193,-0.0198,-0.0386,-0.0511,-0.0136,-0.0135,-0.0135,-0.0134,0,0.0019,0.0056,0.0134,0.0187,0.0205,0.0251,0.0312,0.0373,0.0385,0.0488,0.0495,0.0476,0.0395,0.0245,0.0114,-0.0008,-0.0249,-0.0192,-0.0192,-0.0218,-0.0486,-0.0608,-0.0769,-0.0879,-0.0312,-0.0313,-0.0314,0,0.007,0.011,0.019,0.0244,0.0275,0.034,0.0396,0.0421,0.0506,0.0579,0.0648,0.0591,0.0597,0.0355,0.0107,-0.0133,-0.0302,-0.0291,-0.0307,-0.0503,-0.0658,-0.0695,-0.0779,-0.0331,-0.0332,-0.0333,-0.0333,0,0.0142,0.0158,0.0214,0.0328,0.0403,0.0488,0.0575,0.0662,0.0724,0.0814,0.0925,0.0928,0.0677,0.0456,0.0095,-0.0087,-0.044,-0.0316,-0.0511,-0.0683,-0.074,-0.0858,-0.0304,-0.0341,-0.034,-0.0339,-0.0339,-0.0339,0.0197,0.0245,0.0314,0.042,0.0511,0.0643,0.0748,0.0875,0.1028,0.1216,0.1162,0.1237,0.0831,0.0343,0.0025,-0.0525,-0.0518,-0.0656,-0.0787,-0.0802,-0.0914,-0.0387,-0.0459,-0.0459,-0.0459,-0.0459,-0.0459,0,0.0266,0.0302,0.0405,0.0539,0.0651,0.0686,0.0877,0.1031,0.1261,0.1431,0.1534,0.1377,0.0862,0.0317,-0.0436,-0.0864,-0.1021,-0.1122,-0.1188,-0.1253,-0.0774,-0.078,-0.0934,-0.0934,-0.0933,-0.0933,-0.0933,-0.0933,0.0298,0.0384,0.0434,0.0635,0.0734,0.0927,0.1056,0.1317,0.1509,0.1778,0.1848,0.1813,0.1383,0.0001,-0.0974,-0.1258,-0.1598,-0.1678,-0.1842,-0.1539,-0.1504,-0.1472,-0.1505,-0.1808,-0.1809,-0.223,-0.2235,-0.2239]}],[{"header":{"parameterUnit":"m.s-1","parameterCategory":2,"la1":30.2991,"la2":30.254,"lo1":-89.0895,"lo2":-89.0444,"dy":0.0017,"dx":0.0017,"nx":28,"ny":28,"refTime":"2025-03-18T21:00:00:Z","depth":"2","parameterNumber":2,"parameterNumberName":"U-component_of_CURRENTS"},"data":[0,0,0,0,0,0,0,0,0,0,0,0,0,0,0,0,0,0,0,0,0,0,0,0,0,0,0,0,0,0,0,0,0,0,0,0,0,0,0,0,0,0,0,0,0,0,0,0,0,0,0,0,0,0,0,0,0,0,0.2242,0.2242,0,0.2231,0.2231,0.2231,0.2214,0.2214,0.2214,0.2214,0.2212,0.2212,0.2212,0,0,0,0,0,0,0,0,0,0,0,0,0,0.2266,0.2266,0.2242,0.2242,0.2242,0.2231,0.2231,0.223,0.2214,0.2214,0.2214,0.2214,0.2212,0.2212,0.2212,0,0,0,0,0,0,0,0,0,0,0,0,0,0.2253,0.2265,0.2242,0.2235,0.2234,0.2231,0.2231,0.223,0.2214,0.2214,0.2214,0.2214,0.2212,0.2212,0.2212,0.2214,0,0,0.2212,0.2212,0,0,0,0,0,0,0,0,0.2254,0.2252,0.2236,0.2235,0.2235,0.2226,0.2239,0.2226,0.2214,0.2219,0.2214,0.2214,0.2219,0.2219,0.2213,0.2214,0.2214,0.2212,0.2212,0.2212,0.2212,0,0,0,0,0,0,0,0.2255,0.2252,0.2235,0.2236,0.2235,0.2238,0.2236,0.2236,0.2218,0.2218,0.2218,0.2221,0.2219,0.2213,0.2213,0.2214,0.2212,0.2212,0.2212,0.2212,0.2284,0.2285,0,0,0,0,0,0,0.226,0.2253,0.2236,0.2235,0.2247,0.2238,0.2235,0.2227,0.2218,0.2217,0.2221,0.222,0.2213,0.2213,0.2213,0.225,0.2212,0.2212,0.2212,0.2282,0.2284,0.2286,0,0,0,0,0,0,0.2261,0.2258,0.2236,0.2247,0.2244,0.2238,0.2228,0.2227,0.2225,0.222,0.2219,0.2222,0.2213,0.2213,0.2217,0.2248,0.2212,0.2212,0.228,0.2283,0.2285,0.2301,0,0,0,0,0,0,0.2261,0.2258,0.2259,0.2247,0.2244,0.2245,0.2229,0.2227,0.2228,0.2226,0.222,0.222,0.2213,0.2217,0.2217,0.2248,0.2212,0.2277,0.2281,0.2284,0.2298,0.2304,0.2309,0,0,0,0,0,0.2262,0.2266,0.2258,0.2257,0.2243,0.2246,0.2245,0.2239,0.2228,0.2234,0.2224,0.222,0.2241,0.2217,0.2217,0.2249,0.2275,0.228,0.2284,0.2296,0.2303,0.2309,0,0,0,0,0,0,0.2288,0.2264,0.2256,0.2255,0.2256,0.2245,0.2252,0.2242,0.2238,0.2236,0.2224,0.2223,0.2242,0.2247,0.2222,0.2286,0.2266,0.227,0.2276,0.2282,0.2288,0.2288,0.2212,0,0,0,0,0,0.2292,0.2282,0.227,0.2274,0.2272,0.2261,0.2262,0.2256,0.225,0.2247,0.2241,0.2248,0.2261,0.227,0.2276,0.23,0.2303,0.2331,0.2336,0.234,0.2345,0.2367,0.2373,0.23,0.23,0.23,0,0,0.2307,0.2292,0.229,0.2278,0.2275,0.228,0.2261,0.2266,0.2274,0.2249,0.2256,0.2256,0.2269,0.2295,0.2308,0.2303,0.2365,0.2346,0.2349,0.2351,0.2372,0.2378,0.2384,0.2303,0.2302,0.2302,0,0,0.2332,0.2316,0.2314,0.2312,0.2308,0.2302,0.2305,0.2294,0.2292,0.2297,0.229,0.2306,0.2317,0.2336,0.2348,0.2392,0.2386,0.2407,0.2439,0.246,0.2466,0.2471,0.2483,0.2489,0.2418,0.2418,0.2418,0,0.2356,0.2343,0.2321,0.2322,0.2329,0.2313,0.2325,0.2323,0.2316,0.2328,0.2308,0.234,0.2342,0.2387,0.2402,0.2404,0.2408,0.2405,0.2465,0.2469,0.2474,0.2486,0.2492,0.2419,0.2419,0.2419,0.2419,0,0.2373,0.2368,0.2372,0.2362,0.2369,0.2378,0.2373,0.2384,0.2377,0.2376,0.2405,0.2399,0.2429,0.2437,0.2426,0.2477,0.2466,0.2457,0.2439,0.2482,0.2492,0.2498,0.2421,0.2421,0.242,0.242,0,0,0.2418,0.2388,0.2392,0.2392,0.2389,0.2399,0.2422,0.2442,0.2472,0.2458,0.2494,0.2505,0.2502,0.2516,0.2514,0.2525,0.2554,0.2505,0.2506,0.2502,0.2594,0.264,0.265,0.2549,0.255,0.2551,0.2587,0,0.2443,0.2441,0.2428,0.245,0.245,0.2454,0.248,0.2501,0.2517,0.2547,0.2544,0.2572,0.2534,0.2554,0.2559,0.256,0.2571,0.2545,0.2567,0.2568,0.259,0.266,0.2346,0.2357,0.2593,0.2594,0.2594,0,0.2464,0.2457,0.2469,0.2481,0.2487,0.2506,0.2561,0.2582,0.2624,0.2639,0.2664,0.266,0.2683,0.2637,0.2652,0.2635,0.2619,0.2605,0.2606,0.2648,0.2626,0.2355,0.2359,0.2604,0.2603,0.2603,0.2602,0,0.249,0.2494,0.2502,0.2504,0.2516,0.2542,0.2562,0.2612,0.265,0.2701,0.2738,0.2752,0.2771,0.2749,0.2724,0.2692,0.2731,0.269,0.2713,0.2715,0.2454,0.2433,0.27,0.27,0.27,0.27,0.27,0,0.251,0.252,0.2512,0.2516,0.255,0.2561,0.2622,0.2653,0.2716,0.2772,0.2782,0.2834,0.2798,0.2813,0.2766,0.2777,0.2773,0.2738,0.274,0.2456,0.2436,0.2652,0.2646,0.2701,0.2701,0.2701,0.27,0,0.2525,0.2516,0.2527,0.2544,0.2553,0.2579,0.2639,0.2685,0.2751,0.2827,0.2846,0.2907,0.2941,0.2908,0.2894,0.2855,0.2843,0.2841,0.2518,0.2485,0.2794,0.2789,0.2874,0.2876,0.2878,0.288,0.2881,0,0.25,0.2514,0.2543,0.2544,0.2547,0.2586,0.2614,0.2687,0.2744,0.2875,0.2911,0.2985,0.302,0.3036,0.29,0.2838,0.2921,0.2618,0.2521,0.2825,0.2818,0.2809,0.2802,0.2158,0.2153,0.2149,0.2146,0,0.2471,0.2507,0.2522,0.2532,0.2551,0.2581,0.2631,0.2683,0.2782,0.2845,0.2952,0.2997,0.2988,0.2791,0.2742,0.2669,0.2605,0.255,0.2922,0.2209,0.2165,0.2154,0.2166,0.2111,0.2115,0.2117,0.2119,0.2121,0.2429,0.2464,0.2493,0.2504,0.2519,0.254,0.2553,0.254,0.2591,0.2576,0.2801,0.2716,0.2709,0.2444,0.2359,0.2264,0.2446,0.2343,0.2345,0.2355,0.2312,0.228,0.2237,0.2241,0.2244,0.2248,0.225,0,0.2311,0.2435,0.2447,0.2452,0.2375,0.2477,0.253,0.2408,0.2324,0.2347,0.2333,0.212,0.2,0.2025,0.1776,0.1808,0.1677,0.1807,0.1584,0.1621,0.1653,0.1566,0.1297,0.1295,0.1292,0.129,0,0,0.2262,0.2271,0.2307,0.2224,0.2276,0.2134,0.2142,0.1992,0.1908,0.1737,0.168,0.1763,0.1925,0.1542,0.151,0.1376,0.1483,0.1319,0.2074,0.1843,0.1872,0.1949,0.186,0,0,0,0,0]},{"header":{"parameterUnit":"m.s-1","parameterCategory":2,"la1":30.2991,"la2":30.254,"lo1":-89.0895,"lo2":-89.0444,"dy":0.0017,"dx":0.0017,"nx":28,"ny":28,"refTime":"2025-03-18T21:00:00:Z","depth":"2","parameterNumber":3,"parameterNumberName":"V-component_of_CURRENTS"},"data":[0,0,0,0,0,0,0,0,0,0,0,0,0,0,0,0,0,0,0,0,0,0,0,0,0,0,0,0,0,0,0,0,0,0,0,0,0,0,0,0,0,0,0,0,0,0,0,0,0,0,0,0,0,0,0,0,0,0,-0.0169,-0.0168,0,-0.016,-0.016,-0.016,-0.0171,-0.0171,-0.0172,-0.0172,-0.0211,-0.0212,-0.0213,0,0,0,0,0,0,0,0,0,0,0,0,0,-0.0239,-0.0238,-0.0169,-0.0168,-0.0168,-0.016,-0.016,-0.016,-0.0171,-0.0171,-0.0172,-0.0172,-0.0211,-0.0212,-0.0213,0,0,0,0,0,0,0,0,0,0,0,0,0,-0.0218,-0.0237,-0.0169,-0.0172,-0.0173,-0.016,-0.016,-0.016,-0.0171,-0.0171,-0.0172,-0.0172,-0.0211,-0.0212,-0.0213,-0.0209,0,0,-0.0216,-0.0217,0,0,0,0,0,0,0,0,-0.0219,-0.0215,-0.0172,-0.0172,-0.0172,-0.0166,-0.0199,-0.0178,-0.0171,-0.0172,-0.0172,-0.0173,-0.02,-0.0202,-0.0199,-0.0211,-0.0212,-0.0216,-0.0217,-0.0217,-0.0218,0,0,0,0,0,0,0,-0.022,-0.0216,-0.0166,-0.0172,-0.0172,-0.019,-0.0187,-0.0195,-0.0185,-0.0172,-0.0173,-0.0171,-0.0201,-0.0198,-0.02,-0.0213,-0.0216,-0.0217,-0.0218,-0.0218,-0.0255,-0.0255,0,0,0,0,0,0,-0.0217,-0.0217,-0.0166,-0.0165,-0.0197,-0.0188,-0.0185,-0.0168,-0.0183,-0.0186,-0.017,-0.0171,-0.0196,-0.0199,-0.0202,-0.0196,-0.0217,-0.0218,-0.0219,-0.0255,-0.0255,-0.0256,0,0,0,0,0,0,-0.0218,-0.0212,-0.0166,-0.0192,-0.0187,-0.0186,-0.0167,-0.0168,-0.0167,-0.0181,-0.0185,-0.0169,-0.0197,-0.02,-0.0202,-0.0197,-0.0219,-0.022,-0.0254,-0.0255,-0.0255,-0.0185,0,0,0,0,0,0,-0.022,-0.0212,-0.0203,-0.0191,-0.0185,-0.0154,-0.0167,-0.0167,-0.0164,-0.0165,-0.0181,-0.0185,-0.0197,-0.02,-0.0203,-0.0199,-0.0221,-0.0254,-0.0255,-0.0255,-0.0187,-0.0183,-0.0179,0,0,0,0,0,-0.0222,-0.0205,-0.0202,-0.0197,-0.0171,-0.0154,-0.0153,-0.0155,-0.0164,-0.0157,-0.0166,-0.0185,-0.0207,-0.02,-0.0204,-0.02,-0.0254,-0.0254,-0.0255,-0.0188,-0.0183,-0.0179,0,0,0,0,0,0,-0.0241,-0.0204,-0.0201,-0.0177,-0.0165,-0.0155,-0.015,-0.0153,-0.0154,-0.0156,-0.0175,-0.0179,-0.018,-0.0205,-0.0197,-0.0218,-0.0239,-0.0241,-0.0188,-0.0183,-0.018,-0.0162,-0.0222,0,0,0,0,0,-0.0237,-0.0211,-0.0189,-0.0172,-0.0161,-0.0156,-0.0151,-0.0149,-0.0147,-0.0148,-0.0159,-0.0177,-0.0186,-0.0195,-0.0206,-0.021,-0.0231,-0.0219,-0.0215,-0.0211,-0.0202,-0.0214,-0.021,-0.0258,-0.0258,-0.0258,0,0,-0.0245,-0.0219,-0.0208,-0.0174,-0.0164,-0.0141,-0.0154,-0.0139,-0.0128,-0.0153,-0.0144,-0.0158,-0.0184,-0.0184,-0.019,-0.0203,-0.0213,-0.0212,-0.0209,-0.0201,-0.0214,-0.0209,-0.0205,-0.0258,-0.0258,-0.0258,0,0,-0.0232,-0.0216,-0.0182,-0.0166,-0.014,-0.0135,-0.0129,-0.0115,-0.0115,-0.0105,-0.0122,-0.0129,-0.0148,-0.0158,-0.0168,-0.0156,-0.0189,-0.0174,-0.0141,-0.0153,-0.0148,-0.0144,-0.0176,-0.0176,-0.0177,-0.0177,-0.0177,0,-0.0243,-0.019,-0.0176,-0.0138,-0.0125,-0.0129,-0.0099,-0.0097,-0.0089,-0.0081,-0.0098,-0.0109,-0.0134,-0.0127,-0.0126,-0.0145,-0.0164,-0.0148,-0.0144,-0.0141,-0.0138,-0.0173,-0.0173,-0.0173,-0.0174,-0.0174,-0.0174,0,-0.0193,-0.0159,-0.014,-0.0091,-0.0081,-0.0056,-0.0048,-0.0043,-0.0048,-0.004,-0.0033,-0.0056,-0.0066,-0.008,-0.0098,-0.0093,-0.0118,-0.013,-0.0146,-0.0129,-0.0167,-0.0168,-0.0169,-0.017,-0.0171,-0.0172,0,0,-0.0186,-0.0117,-0.0109,-0.0077,-0.005,-0.0032,-0.0021,0.0004,0.0031,0.0017,0.0047,0.0019,0.0009,-0.0005,-0.0032,-0.0044,-0.005,-0.0077,-0.0079,-0.0093,-0.0088,-0.0124,-0.013,-0.0056,-0.0055,-0.0055,-0.0127,0,-0.0147,-0.0065,-0.0051,0.0002,0.0045,0.0034,0.005,0.0063,0.0075,0.0102,0.0073,0.0089,0.0036,0.0038,0.0017,-0.0021,-0.0049,-0.0031,-0.0118,-0.0121,-0.014,-0.013,-0.008,-0.014,-0.0128,-0.0129,-0.0129,0,-0.0089,-0.0039,0.0031,0.0074,0.0089,0.0108,0.0143,0.0158,0.018,0.0187,0.0189,0.0176,0.0152,0.0108,0.0036,0.0052,-0.0018,-0.0057,-0.0061,-0.0116,-0.0158,-0.0156,-0.0144,-0.0132,-0.0132,-0.0131,-0.0131,0,-0.0053,0.0015,0.0075,0.0093,0.0139,0.0154,0.0165,0.0193,0.0233,0.0249,0.0286,0.0247,0.0246,0.0159,0.0056,0.005,-0.0021,-0.0044,-0.0148,-0.0153,-0.0138,-0.0142,-0.0102,-0.0102,-0.0101,-0.0101,-0.0101,0,-0.0001,0.0048,0.0102,0.0139,0.0201,0.0203,0.027,0.0274,0.0319,0.04,0.0337,0.039,0.0265,0.021,0.0089,-0.0034,-0.0008,-0.0138,-0.0166,-0.0117,-0.0117,-0.0131,-0.0134,-0.0104,-0.0103,-0.0103,-0.0102,0,0.0043,0.008,0.0158,0.0212,0.0231,0.0277,0.0339,0.04,0.0413,0.0516,0.0524,0.0505,0.0424,0.0275,0.0144,0.0023,-0.0104,-0.0162,-0.011,-0.013,-0.0241,-0.0239,-0.028,-0.0281,-0.0283,-0.0284,-0.0285,0,0.0094,0.0133,0.0214,0.0268,0.03,0.0365,0.0421,0.0448,0.0533,0.0607,0.0676,0.0619,0.0624,0.0382,0.016,-0.0074,-0.0125,-0.0208,-0.0216,-0.0233,-0.0256,-0.0252,-0.0248,-0.0178,-0.0178,-0.0178,-0.0178,0,0.0166,0.0181,0.0238,0.0351,0.0427,0.0513,0.06,0.0687,0.075,0.0842,0.0952,0.0955,0.0724,0.0519,0.0164,0.0009,-0.017,-0.0218,-0.0228,-0.0144,-0.0143,-0.0164,-0.0163,-0.0179,-0.0179,-0.0179,-0.0178,-0.0178,0.0221,0.0268,0.0337,0.0443,0.0534,0.0666,0.0772,0.0906,0.1061,0.1229,0.1169,0.1176,0.0882,0.0467,0.0168,-0.0157,-0.0149,-0.0268,-0.0265,-0.0262,-0.024,-0.0242,-0.0294,-0.0294,-0.0295,-0.0295,-0.0296,0,0.033,0.0325,0.0428,0.0561,0.0708,0.071,0.0901,0.1067,0.1306,0.1387,0.147,0.1218,0.0912,0.0546,0.0091,-0.019,-0.0189,-0.0304,-0.0238,-0.0236,-0.0234,-0.0209,-0.0255,-0.0256,-0.0257,-0.0257,0,0,0.0371,0.0469,0.0518,0.0728,0.0798,0.103,0.1161,0.1387,0.1525,0.1681,0.1643,0.1487,0.1028,0.0693,0.0298,0.0026,-0.0031,-0.0024,-0.0022,0.0108,0.0113,-0.018,-0.0135,0,0,0,0,0]}],[{"header":{"parameterUnit":"m.s-1","parameterCategory":2,"la1":30.2991,"la2":30.254,"lo1":-89.0895,"lo2":-89.0444,"dy":0.0017,"dx":0.0017,"nx":28,"ny":28,"refTime":"2025-03-18T21:00:00:Z","depth":"4","parameterNumber":2,"parameterNumberName":"U-component_of_CURRENTS"},"data":[0,0,0,0,0,0,0,0,0,0,0,0,0,0,0,0,0,0,0,0,0,0,0,0,0,0,0,0,0,0,0,0,0,0,0,0,0,0,0,0,0,0,0,0,0,0,0,0,0,0,0,0,0,0,0,0,0,0,0.0789,0.079,0,0.0855,0.0855,0.0856,0.0895,0.0895,0.0895,0.0896,0.0914,0.0914,0.0914,0,0,0,0,0,0,0,0,0,0,0,0,0,0.0683,0.0684,0.0789,0.079,0.0791,0.0854,0.0855,0.0856,0.0894,0.0895,0.0895,0.0896,0.0914,0.0914,0.0914,0,0,0,0,0,0,0,0,0,0,0,0,0,0.0734,0.0685,0.0789,0.082,0.0823,0.0854,0.0855,0.0856,0.0894,0.0895,0.0896,0.0896,0.0914,0.0914,0.0914,0.0903,0,0,0.0914,0.0914,0,0,0,0,0,0,0,0,0.0731,0.0738,0.0814,0.0818,0.0822,0.0869,0.0824,0.087,0.0894,0.0865,0.0896,0.0896,0.0895,0.0897,0.0905,0.0904,0.0905,0.0914,0.0915,0.0915,0.0915,0,0,0,0,0,0,0,0.0728,0.0735,0.0812,0.0815,0.082,0.0826,0.0833,0.0833,0.0873,0.0867,0.0871,0.0882,0.0897,0.0905,0.0906,0.0905,0.0914,0.0915,0.0915,0.0915,0.0964,0.0965,0,0,0,0,0,0,0.0725,0.0732,0.081,0.0815,0.078,0.0827,0.0836,0.0851,0.0874,0.088,0.0881,0.0884,0.0905,0.0906,0.0907,0.097,0.0915,0.0915,0.0915,0.0963,0.0965,0.0966,0,0,0,0,0,0,0.0722,0.0731,0.0808,0.0776,0.0787,0.0829,0.0846,0.0852,0.0885,0.0886,0.089,0.091,0.0905,0.0906,0.0943,0.0968,0.0915,0.0915,0.0962,0.0964,0.0965,0.1048,0,0,0,0,0,0,0.0719,0.073,0.0747,0.0776,0.0789,0.0842,0.0846,0.0853,0.089,0.0894,0.0911,0.0912,0.0906,0.0943,0.0943,0.0967,0.0915,0.096,0.0963,0.0965,0.1044,0.1053,0.106,0,0,0,0,0,0.0715,0.0732,0.0748,0.0758,0.0809,0.0844,0.0851,0.088,0.0891,0.091,0.0933,0.0913,0.0956,0.0944,0.0944,0.0969,0.0959,0.0962,0.0964,0.104,0.1051,0.106,0,0,0,0,0,0,0.0691,0.0739,0.0757,0.0787,0.0822,0.0852,0.0874,0.0893,0.0926,0.0936,0.0935,0.0938,0.0977,0.0961,0.0947,0.0989,0.0951,0.0954,0.1009,0.1019,0.1027,0.1029,0.0915,0,0,0,0,0,0.0695,0.0725,0.0766,0.0793,0.0813,0.0848,0.0869,0.0892,0.0922,0.0938,0.0953,0.0967,0.0983,0.0994,0.1002,0.1026,0.1028,0.1039,0.1047,0.1054,0.1056,0.1107,0.1121,0.0975,0.0975,0.0975,0,0,0.0691,0.0724,0.074,0.0791,0.082,0.0855,0.0863,0.0905,0.0936,0.0932,0.0983,0.0998,0.0997,0.1033,0.1047,0.1026,0.1096,0.1058,0.1064,0.1061,0.1112,0.1126,0.1139,0.0977,0.0976,0.0976,0,0,0.0704,0.0732,0.0768,0.0798,0.0854,0.0873,0.0891,0.0939,0.0965,0.1014,0.1022,0.106,0.1079,0.1093,0.1098,0.1151,0.1139,0.115,0.1193,0.1244,0.1257,0.1268,0.1287,0.1299,0.1152,0.1152,0.1152,0,0.0703,0.0753,0.0781,0.0823,0.0851,0.0884,0.0925,0.0952,0.1007,0.1036,0.1039,0.1107,0.1106,0.1155,0.1176,0.117,0.1191,0.1159,0.1257,0.1268,0.1278,0.1295,0.1307,0.1156,0.1156,0.1156,0.1155,0,0.0743,0.0787,0.0809,0.0873,0.0901,0.0942,0.0981,0.1018,0.1053,0.1087,0.1158,0.1178,0.122,0.1224,0.1217,0.1287,0.1276,0.1266,0.1235,0.1298,0.1311,0.1323,0.1163,0.1161,0.116,0.1159,0,0,0.0739,0.0823,0.0836,0.0873,0.0934,0.0961,0.1009,0.1068,0.1118,0.1169,0.1243,0.1275,0.1305,0.1312,0.1319,0.1357,0.1442,0.1348,0.1348,0.1372,0.1548,0.1449,0.1452,0.1465,0.1467,0.1469,0.1528,0,0.0772,0.0853,0.0884,0.0952,0.0995,0.1027,0.1069,0.1121,0.1174,0.1251,0.129,0.1362,0.1333,0.1378,0.1412,0.1448,0.1477,0.1426,0.1478,0.1479,0.1389,0.1464,0.1478,0.1537,0.1539,0.1541,0.1542,0,0.0812,0.0862,0.0937,0.1004,0.1026,0.1067,0.1144,0.1189,0.1281,0.1329,0.1405,0.1446,0.1522,0.1491,0.1571,0.1549,0.1551,0.1561,0.1564,0.1449,0.1402,0.146,0.1563,0.1561,0.156,0.1558,0.1557,0,0.0806,0.0897,0.0958,0.0984,0.1062,0.1102,0.1145,0.1225,0.1281,0.1402,0.1472,0.1551,0.1626,0.165,0.1664,0.164,0.1745,0.171,0.1613,0.1605,0.1638,0.1625,0.1756,0.1756,0.1756,0.1756,0.1755,0,0.0823,0.0875,0.0969,0.1001,0.107,0.1122,0.1207,0.1259,0.1368,0.1449,0.1527,0.1609,0.1678,0.1738,0.1717,0.1706,0.1788,0.1632,0.1624,0.1669,0.1659,0.1646,0.1632,0.1758,0.1757,0.1757,0.1757,0,0.08,0.0872,0.0942,0.1037,0.1072,0.1121,0.1232,0.1288,0.1402,0.1518,0.1568,0.1696,0.1772,0.1801,0.1856,0.1778,0.177,0.1734,0.1783,0.1774,0.1576,0.1567,0.1637,0.1634,0.1631,0.1629,0.1628,0,0.0805,0.0838,0.0947,0.0989,0.1039,0.1126,0.1178,0.1293,0.1359,0.1551,0.1602,0.1738,0.1798,0.1794,0.1826,0.1788,0.1747,0.1723,0.1637,0.1584,0.157,0.1564,0.1557,0.1624,0.1623,0.1623,0.1622,0,0.0773,0.0813,0.0854,0.0949,0.102,0.1084,0.1179,0.1228,0.1368,0.1499,0.1598,0.1641,0.1726,0.1743,0.1734,0.1696,0.1734,0.1698,0.1701,0.162,0.157,0.1557,0.1553,0.1614,0.1615,0.1616,0.1617,0,0.0738,0.0743,0.08,0.0878,0.0962,0.101,0.1075,0.1161,0.1244,0.1454,0.149,0.1613,0.1731,0.1698,0.169,0.1653,0.1604,0.1517,0.1529,0.1538,0.1474,0.1394,0.1392,0,0,0,0,0,0.0683,0.0661,0.0726,0.0793,0.0877,0.0924,0.1053,0.1124,0.1285,0.1316,0.1397,0.1461,0.1491,0.1556,0.1489,0.1618,0.1591,0.1532,0.1492,0.1569,0.1579,0.1509,0,0,0,0,0,0,0.0633,0.0648,0.068,0.0711,0.074,0.0813,0.0887,0.0998,0.1028,0.12,0.1226,0.1349,0.1395,0.1497,0.1451,0.1464,0.1403,0.1604,0.16,0.1564,0.1572,0.158,0.1511,0,0,0,0,0]},{"header":{"parameterUnit":"m.s-1","parameterCategory":2,"la1":30.2991,"la2":30.254,"lo1":-89.0895,"lo2":-89.0444,"dy":0.0017,"dx":0.0017,"nx":28,"ny":28,"refTime":"2025-03-18T21:00:00:Z","depth":"4","parameterNumber":3,"parameterNumberName":"V-component_of_CURRENTS"},"data":[0,0,0,0,0,0,0,0,0,0,0,0,0,0,0,0,0,0,0,0,0,0,0,0,0,0,0,0,0,0,0,0,0,0,0,0,0,0,0,0,0,0,0,0,0,0,0,0,0,0,0,0,0,0,0,0,0,0,0.057,0.057,0,0.0535,0.0535,0.0535,0.0516,0.0516,0.0516,0.0516,0.0509,0.0509,0.0509,0,0,0,0,0,0,0,0,0,0,0,0,0,0.0591,0.0591,0.057,0.0569,0.0569,0.0535,0.0535,0.0534,0.0516,0.0516,0.0516,0.0516,0.0509,0.0509,0.0509,0,0,0,0,0,0,0,0,0,0,0,0,0,0.0572,0.0591,0.057,0.0555,0.0554,0.0535,0.0535,0.0534,0.0516,0.0516,0.0516,0.0516,0.0509,0.0509,0.0509,0.051,0,0,0.0508,0.0508,0,0,0,0,0,0,0,0,0.0573,0.0572,0.0558,0.0556,0.0554,0.0529,0.054,0.0527,0.0516,0.0531,0.0516,0.0516,0.0518,0.0517,0.0511,0.051,0.051,0.0508,0.0508,0.0508,0.0508,0,0,0,0,0,0,0,0.0575,0.0573,0.0557,0.0558,0.0555,0.054,0.0538,0.0537,0.0527,0.053,0.0528,0.0523,0.0517,0.0511,0.0511,0.051,0.0508,0.0508,0.0508,0.0508,0.0546,0.0547,0,0,0,0,0,0,0.058,0.0574,0.0558,0.0556,0.0563,0.054,0.0537,0.0538,0.0526,0.0524,0.0524,0.0523,0.0512,0.0511,0.0511,0.0524,0.0508,0.0508,0.0508,0.0545,0.0546,0.0547,0,0,0,0,0,0,0.058,0.0579,0.0559,0.0563,0.056,0.054,0.0541,0.0537,0.0534,0.0521,0.0519,0.0524,0.0512,0.0511,0.0507,0.0523,0.0508,0.0508,0.0543,0.0545,0.0547,0.0543,0,0,0,0,0,0,0.0581,0.0579,0.0588,0.0564,0.056,0.0556,0.0541,0.0537,0.0531,0.053,0.0521,0.052,0.0512,0.0507,0.0507,0.0523,0.0508,0.0542,0.0544,0.0546,0.0542,0.0545,0.0547,0,0,0,0,0,0.0582,0.0597,0.0589,0.0587,0.057,0.0556,0.0553,0.0538,0.0531,0.0534,0.0521,0.052,0.0521,0.0507,0.0507,0.0523,0.0541,0.0543,0.0546,0.0541,0.0544,0.0547,0,0,0,0,0,0,0.0614,0.0595,0.0586,0.0595,0.0579,0.0553,0.0558,0.0542,0.0534,0.0536,0.052,0.0518,0.0523,0.0528,0.0513,0.0544,0.0537,0.054,0.0534,0.0537,0.054,0.055,0.0507,0,0,0,0,0,0.0624,0.0629,0.0604,0.0612,0.0606,0.0582,0.0576,0.0564,0.0549,0.0545,0.0534,0.0534,0.0534,0.0537,0.0537,0.0548,0.0523,0.0565,0.0568,0.057,0.058,0.0537,0.0535,0.0555,0.0555,0.0555,0,0,0.0641,0.0629,0.0634,0.0619,0.0607,0.0605,0.0579,0.0574,0.0576,0.0547,0.0551,0.0537,0.0538,0.0545,0.0551,0.055,0.055,0.0573,0.0574,0.0584,0.0539,0.0536,0.0534,0.0557,0.0557,0.0556,0,0,0.0666,0.0664,0.0671,0.0661,0.0643,0.063,0.063,0.0604,0.0599,0.0593,0.0576,0.0566,0.057,0.0566,0.0567,0.0588,0.056,0.0601,0.0623,0.0579,0.0576,0.0574,0.0527,0.052,0.0607,0.0607,0.0607,0,0.0685,0.0688,0.0671,0.0671,0.0673,0.0643,0.0651,0.0642,0.0618,0.062,0.0601,0.0589,0.0582,0.0589,0.0595,0.0592,0.056,0.0604,0.0579,0.0576,0.0573,0.0525,0.0518,0.0607,0.0607,0.0607,0.0607,0,0.0704,0.0712,0.0717,0.071,0.0712,0.0715,0.0699,0.0698,0.0685,0.067,0.0664,0.0632,0.0628,0.0626,0.0614,0.0606,0.0585,0.0577,0.0562,0.057,0.052,0.0512,0.0607,0.0607,0.0607,0.0607,0,0,0.0727,0.073,0.0732,0.0742,0.0734,0.0738,0.0751,0.0752,0.0763,0.0729,0.0727,0.0712,0.0682,0.0683,0.0658,0.0623,0.0563,0.0596,0.0593,0.0534,0.0457,0.0434,0.0422,0.0539,0.0538,0.0538,0.0425,0,0.0744,0.076,0.0759,0.0788,0.0796,0.0792,0.0811,0.0812,0.08,0.079,0.075,0.0738,0.0709,0.0694,0.0654,0.0589,0.0545,0.0595,0.0474,0.0471,0.0435,0.0414,0.0535,0.0419,0.0417,0.0415,0.0414,0,0.0753,0.0766,0.0796,0.083,0.0836,0.0857,0.0886,0.0896,0.0884,0.087,0.0839,0.0796,0.0746,0.071,0.0595,0.0624,0.0547,0.0489,0.0482,0.046,0.0432,0.0415,0.0399,0.0401,0.0402,0.0403,0.0404,0,0.0765,0.0793,0.0824,0.0832,0.0863,0.0892,0.0915,0.0926,0.0943,0.0913,0.0901,0.0833,0.0786,0.0688,0.0566,0.0574,0.0423,0.0417,0.0322,0.0319,0.0374,0.0378,0.0329,0.0329,0.033,0.033,0.033,0,0.0772,0.08,0.0837,0.0854,0.0909,0.0924,0.0978,0.0985,0.0992,0.1007,0.094,0.0909,0.0775,0.0672,0.0566,0.0414,0.0417,0.032,0.0287,0.0376,0.0382,0.0367,0.0373,0.0326,0.0327,0.0327,0.0328,0,0.0775,0.0793,0.0838,0.089,0.0913,0.0956,0.1026,0.1062,0.1056,0.1062,0.1049,0.0954,0.0813,0.0671,0.0497,0.0413,0.0275,0.0221,0.0318,0.0293,0.0199,0.0207,0.0105,0.0103,0.0101,0.01,0.0099,0,0.0766,0.0795,0.0869,0.0906,0.0937,0.1003,0.1056,0.109,0.1122,0.1087,0.1084,0.0951,0.0868,0.0601,0.0456,0.0238,0.0214,0.0142,0.018,0.0198,0.0176,0.0186,0.0195,0.0096,0.0096,0.0096,0.0095,0,0.0774,0.0816,0.086,0.0934,0.1,0.1073,0.1143,0.1164,0.1189,0.1177,0.1093,0.095,0.0783,0.0588,0.041,0.0262,0.0191,0.0126,0.0129,0.0164,0.0186,0.0169,0.018,0.009,0.0091,0.0091,0.0092,0,0.0788,0.0832,0.0902,0.0963,0.1045,0.1119,0.1156,0.1184,0.1206,0.1161,0.1127,0.0947,0.0844,0.0598,0.0441,0.0283,0.0251,0.0216,0.0214,0.0218,0.0289,0.0336,0.0252,0,0,0,0,0,0.0799,0.0865,0.0925,0.1003,0.1081,0.1137,0.1205,0.1234,0.1243,0.1188,0.1159,0.1001,0.0741,0.0628,0.0464,0.042,0.0232,0.0224,0.0193,0.0061,0.0067,0.0129,0,0,0,0,0,0,0.0815,0.0898,0.0927,0.1019,0.1081,0.1183,0.1233,0.1244,0.1211,0.118,0.1041,0.0966,0.0715,0.0832,0.0462,0.0414,0.0373,0.0103,0.01,0.0057,0.0063,0.0068,0.0134,0,0,0,0,0]}]]